| time (UTC) | temp F | wind direction | speed MPH | gust MPH | rain 1hr in | rain 24hr in | rain mn in | humidity % | barometer mb |
| 20260502212807 | 77 | 1 | 3.0 | 10.0 | 0.00 | 0.64 | 0.00 | 42 | 1014.4 |
| 20260502212800 | 76 | 281 | 3.0 | 10.0 | 0.00 | 0.64 | 0.00 | 41 | 1014.3 |
| 20260502211800 | 77 | 296 | 2.0 | 8.0 | 0.00 | 0.64 | 0.00 | 41 | 1014.4 |
| 20260502211301 | 77 | 15 | 2.0 | 11.0 | 0.00 | 0.64 | 0.00 | 44 | 1014.4 |
| 20260502210755 | 76 | 84 | 3.0 | 11.0 | 0.00 | 0.64 | 0.00 | 41 | 1014.4 |
| 20260502210527 | 76 | 66 | 3.0 | 11.0 | 0.00 | 0.64 | 0.00 | 43 | 1014.5 |
| 20260502205756 | 76 | 312 | 2.0 | 10.0 | 0.00 | 0.65 | 0.00 | 45 | 1014.5 |
| 20260502205255 | 76 | 8 | 3.0 | 10.0 | 0.00 | 0.65 | 0.00 | 43 | 1014.6 |
| 20260502205026 | 76 | 83 | 3.0 | 9.0 | 0.00 | 0.66 | 0.00 | 43 | 1014.7 |
| 20260502204256 | 76 | 5 | 2.0 | 9.0 | 0.00 | 0.72 | 0.00 | 43 | 1014.7 |
| 20260502203752 | 76 | 313 | 3.0 | 9.0 | 0.00 | 0.75 | 0.00 | 42 | 1014.7 |
| 20260502203523 | 76 | 44 | 3.0 | 8.0 | 0.00 | 0.76 | 0.00 | 44 | 1014.7 |
| 20260502202747 | 76 | 348 | 3.0 | 8.0 | 0.00 | 0.77 | 0.00 | 43 | 1014.7 |
| 20260502202247 | 76 | 56 | 3.0 | 8.0 | 0.00 | 0.79 | 0.00 | 44 | 1014.8 |
| 20260502202017 | 76 | 331 | 2.0 | 8.0 | 0.00 | 0.80 | 0.00 | 44 | 1014.9 |
| 20260502201246 | 76 | 79 | 3.0 | 10.0 | 0.00 | 0.81 | 0.00 | 45 | 1014.9 |
| 20260502200745 | 76 | 306 | 3.0 | 10.0 | 0.00 | 0.82 | 0.00 | 45 | 1015.0 |
| 20260502200246 | 76 | 358 | 2.0 | 10.0 | 0.00 | 0.83 | 0.00 | 47 | 1015.0 |
| 20260502200016 | 76 | 43 | 3.0 | 13.0 | 0.00 | 0.84 | 0.00 | 45 | 1015.1 |
| 20260502195245 | 75 | 6 | 3.0 | 13.0 | 0.00 | 0.84 | 0.00 | 46 | 1015.2 |
| 20260502194743 | 75 | 339 | 3.0 | 10.0 | 0.00 | 0.85 | 0.00 | 47 | 1015.3 |
| 20260502194521 | 75 | 32 | 3.0 | 12.0 | 0.00 | 0.86 | 0.00 | 47 | 1015.4 |
| 20260502193742 | 75 | 275 | 4.0 | 12.0 | 0.00 | 0.91 | 0.00 | 49 | 1015.2 |
| 20260502193514 | 74 | 36 | 4.0 | 12.0 | 0.00 | 0.95 | 0.00 | 48 | 1015.3 |
| 20260502192743 | 75 | 15 | 2.0 | 12.0 | 0.00 | 1.00 | 0.00 | 48 | 1015.5 |
| 20260502192512 | 75 | 354 | 3.0 | 11.0 | 0.00 | 1.13 | 0.00 | 50 | 1015.6 |
| 20260502191742 | 74 | 357 | 4.0 | 14.0 | 0.00 | 1.20 | 0.00 | 48 | 1015.8 |
| 20260502191507 | 74 | 13 | 4.0 | 14.0 | 0.00 | 1.27 | 0.00 | 49 | 1015.9 |
| 20260502190736 | 75 | 63 | 3.0 | 13.0 | 0.00 | 1.33 | 0.00 | 48 | 1015.9 |
| 20260502190235 | 74 | 312 | 3.0 | 9.0 | 0.00 | 1.35 | 0.00 | 51 | 1015.8 |
| 20260502185736 | 74 | 299 | 3.0 | 9.0 | 0.00 | 1.36 | 0.00 | 51 | 1016.0 |
| 20260502185235 | 74 | 108 | 4.0 | 11.0 | 0.00 | 1.37 | 0.00 | 48 | 1016.0 |
| 20260502184736 | 74 | 11 | 4.0 | 11.0 | 0.00 | 1.37 | 0.00 | 49 | 1016.0 |
| 20260502184236 | 73 | 49 | 4.0 | 11.0 | 0.00 | 1.39 | 0.00 | 48 | 1016.1 |
| 20260502183733 | 73 | 314 | 3.0 | 11.0 | 0.00 | 1.40 | 0.00 | 48 | 1016.2 |
| 20260502183232 | 74 | 21 | 3.0 | 10.0 | 0.00 | 1.41 | 0.00 | 49 | 1016.2 |
| 20260502182731 | 73 | 320 | 4.0 | 11.0 | 0.00 | 1.43 | 0.00 | 50 | 1016.2 |
| 20260502182231 | 73 | 0 | 4.0 | 11.0 | 0.00 | 1.45 | 0.00 | 47 | 1016.3 |
| 20260502181732 | 73 | 77 | 4.0 | 11.0 | 0.00 | 1.45 | 0.00 | 49 | 1016.4 |
| 20260502181232 | 73 | 51 | 5.0 | 12.0 | 0.00 | 1.46 | 0.00 | 47 | 1016.4 |
| 20260502180732 | 73 | 41 | 4.0 | 12.0 | 0.00 | 1.47 | 0.00 | 47 | 1016.4 |
| 20260502180225 | 74 | 7 | 3.0 | 12.0 | 0.00 | 1.51 | 0.00 | 50 | 1016.5 |
| 20260502170223 | 71 | 54 | 3.0 | 9.0 | 0.00 | 1.71 | 0.00 | 56 | 1016.9 |
| 20260502164215 | 70 | 79 | 4.0 | 14.0 | 0.00 | 1.86 | 0.00 | 59 | 1016.9 |
| 20260502163720 | 69 | 281 | 4.0 | 14.0 | 0.00 | 1.86 | 0.00 | 61 | 1016.7 |
| 20260502163214 | 69 | 63 | 3.0 | 13.0 | 0.00 | 1.86 | 0.00 | 60 | 1016.7 |
| 20260502162716 | 69 | 295 | 3.0 | 11.0 | 0.00 | 1.88 | 0.00 | 61 | 1016.7 |
| 20260502162209 | 69 | 43 | 3.0 | 8.0 | 0.00 | 1.90 | 0.00 | 63 | 1016.8 |
| 20260502161709 | 68 | 319 | 2.0 | 8.0 | 0.00 | 2.02 | 0.00 | 63 | 1016.7 |
| 20260502161207 | 69 | 293 | 2.0 | 7.0 | 0.00 | 2.33 | 0.00 | 65 | 1016.8 |
| 20260502160939 | 67 | 355 | 3.0 | 9.0 | 0.00 | 2.54 | 0.00 | 68 | 1016.8 |
| 20260502160439 | 67 | 75 | 3.0 | 9.0 | 0.00 | 2.58 | 0.00 | 65 | 1016.8 |
| 20260502152157 | 65 | 349 | 2.0 | 9.0 | 0.00 | 2.59 | 0.00 | 72 | 1016.6 |
| 20260502151926 | 65 | 41 | 3.0 | 12.0 | 0.00 | 2.59 | 0.00 | 73 | 1016.7 |
| 20260502151156 | 65 | 17 | 3.0 | 12.0 | 0.00 | 2.59 | 0.00 | 73 | 1016.7 |
| 20260502150653 | 64 | 43 | 3.0 | 10.0 | 0.00 | 2.59 | 0.00 | 74 | 1016.6 |
| 20260502150153 | 64 | 30 | 3.0 | 10.0 | 0.00 | 2.59 | 0.00 | 73 | 1016.6 |
| 20260502130130 | 57 | 319 | 1.0 | 5.0 | 0.00 | 2.68 | 0.00 | 90 | 1015.3 |
| 20260502123626 | 55 | 237 | 0.0 | 2.0 | 0.00 | 2.68 | 0.00 | 91 | 1015.1 |
| 20260502123125 | 55 | 326 | 0.0 | 5.0 | 0.00 | 2.69 | 0.00 | 91 | 1015.1 |
| 20260502122626 | 55 | 320 | 1.0 | 5.0 | 0.00 | 2.69 | 0.00 | 91 | 1014.9 |
| 20260502122127 | 55 | 330 | 1.0 | 4.0 | 0.00 | 2.69 | 0.00 | 92 | 1014.7 |
| 20260502121623 | 54 | 319 | 0.0 | 4.0 | 0.00 | 2.69 | 0.00 | 92 | 1014.5 |
| 20260502121121 | 54 | 356 | 0.0 | 4.0 | 0.00 | 2.69 | 0.00 | 93 | 1014.4 |
| 20260502120621 | 53 | 4 | 0.0 | 4.0 | 0.00 | 2.69 | 0.00 | 93 | 1014.4 |
| 20260502120122 | 53 | 28 | 0.0 | 3.0 | 0.00 | 2.70 | 0.00 | 93 | 1014.5 |
| 20260502115621 | 53 | 3 | 1.0 | 6.0 | 0.00 | 2.70 | 0.00 | 93 | 1014.5 |
| 20260502115121 | 53 | 15 | 1.0 | 6.0 | 0.00 | 2.70 | 0.00 | 93 | 1014.4 |
| 20260502114613 | 53 | 300 | 1.0 | 7.0 | 0.00 | 2.70 | 0.00 | 92 | 1014.4 |
| 20260502114114 | 53 | 302 | 1.0 | 7.0 | 0.00 | 2.70 | 0.00 | 92 | 1014.4 |
| 20260502113846 | 54 | 338 | 1.0 | 7.0 | 0.00 | 2.70 | 0.00 | 92 | 1014.2 |
| 20260502113115 | 54 | 302 | 2.0 | 6.0 | 0.00 | 2.70 | 0.00 | 92 | 1014.1 |
| 20260502112614 | 54 | 349 | 1.0 | 6.0 | 0.00 | 2.70 | 0.00 | 92 | 1014.0 |
| 20260502112114 | 54 | 5 | 1.0 | 7.0 | 0.00 | 2.70 | 0.00 | 92 | 1014.0 |
| 20260502111610 | 54 | 9 | 1.0 | 7.0 | 0.00 | 2.70 | 0.00 | 92 | 1013.9 |
| 20260502111341 | 54 | 313 | 0.0 | 4.0 | 0.00 | 2.70 | 0.00 | 92 | 1013.8 |
| 20260502110607 | 54 | 303 | 0.0 | 5.0 | 0.00 | 2.70 | 0.00 | 92 | 1013.8 |
| 20260502110108 | 54 | 314 | 0.0 | 5.0 | 0.00 | 2.70 | 0.00 | 92 | 1013.9 |
| 20260502105608 | 54 | 328 | 0.0 | 3.0 | 0.00 | 2.70 | 0.00 | 91 | 1014.0 |
| 20260502105108 | 54 | 354 | 0.0 | 3.0 | 0.00 | 2.70 | 0.00 | 91 | 1013.9 |
| 20260502104601 | 54 | 349 | 0.0 | 3.0 | 0.00 | 2.70 | 0.00 | 91 | 1013.8 |
| 20260502104100 | 54 | 343 | 0.0 | 2.0 | 0.00 | 2.70 | 0.00 | 91 | 1013.7 |
| 20260502103558 | 54 | 330 | 0.0 | 1.0 | 0.00 | 2.70 | 0.00 | 90 | 1013.7 |
| 20260502103056 | 54 | 330 | 0.0 | 2.0 | 0.00 | 2.70 | 0.00 | 90 | 1013.7 |
| 20260502102828 | 55 | 330 | 0.0 | 2.0 | 0.00 | 2.70 | 0.00 | 89 | 1013.6 |
| 20260502102322 | 55 | 12 | 0.0 | 5.0 | 0.00 | 2.70 | 0.00 | 89 | 1013.5 |
| 20260502101550 | 55 | 274 | 0.0 | 5.0 | 0.00 | 2.70 | 0.00 | 89 | 1013.3 |
| 20260502101321 | 55 | 81 | 0.0 | 4.0 | 0.00 | 2.71 | 0.00 | 90 | 1013.2 |
| 20260502100551 | 55 | 94 | 0.0 | 3.0 | 0.00 | 2.71 | 0.00 | 89 | 1013.1 |
| 20260502091035 | 56 | 60 | 2.0 | 6.0 | 0.00 | 2.73 | 0.00 | 90 | 1012.2 |
| 20260502090816 | 56 | 335 | 2.0 | 6.0 | 0.00 | 2.73 | 0.00 | 91 | 1012.2 |
| 20260502090536 | 56 | 40 | 2.0 | 6.0 | 0.00 | 2.73 | 0.00 | 90 | 1012.2 |
| 20260502071522 | 56 | 30 | 2.0 | 10.0 | 0.00 | 2.74 | 0.00 | 92 | 1012.0 |
| 20260502071017 | 56 | 326 | 2.0 | 9.0 | 0.00 | 2.74 | 0.00 | 92 | 1012.2 |
| 20260502070517 | 56 | 288 | 2.0 | 9.0 | 0.00 | 2.74 | 0.00 | 92 | 1012.1 |
| 20260502070018 | 56 | 93 | 3.0 | 10.0 | 0.00 | 2.74 | 0.00 | 92 | 1012.0 |
| 20260502065517 | 56 | 13 | 3.0 | 10.0 | 0.00 | 2.74 | 0.00 | 92 | 1012.0 |
| 20260502065017 | 56 | 319 | 2.0 | 9.0 | 0.00 | 2.74 | 0.00 | 92 | 1012.0 |
| 20260502064518 | 56 | 340 | 2.0 | 9.0 | 0.00 | 2.74 | 0.00 | 93 | 1011.9 |
| 20260502064012 | 56 | 338 | 1.0 | 4.0 | 0.00 | 2.74 | 0.00 | 93 | 1012.0 |
| 20260502063513 | 56 | 58 | 1.0 | 5.0 | 0.00 | 2.74 | 0.00 | 93 | 1011.9 |
| 20260502063019 | 57 | 326 | 1.0 | 7.0 | 0.00 | 2.74 | 0.00 | 94 | 1011.8 |
| 20260502063012 | 56 | 72 | 1.0 | 7.0 | 0.00 | 2.74 | 0.00 | 93 | 1011.9 |
| 20260502062012 | 57 | 346 | 1.0 | 14.0 | 0.00 | 2.74 | 0.00 | 94 | 1011.8 |
| 20260502061514 | 57 | 109 | 2.0 | 14.0 | 0.00 | 2.74 | 0.00 | 94 | 1011.7 |
| 20260502061009 | 57 | 51 | 2.0 | 8.0 | 0.00 | 2.74 | 0.00 | 94 | 1011.6 |
| 20260502060508 | 56 | 340 | 1.0 | 6.0 | 0.00 | 2.74 | 0.00 | 94 | 1011.6 |
| 20260502060008 | 57 | 49 | 1.0 | 7.0 | 0.00 | 2.75 | 0.00 | 94 | 1011.5 |
| 20260502055508 | 57 | 119 | 2.0 | 12.0 | 0.00 | 2.75 | 0.00 | 93 | 1011.6 |
| 20260502055009 | 56 | 350 | 2.0 | 12.0 | 0.00 | 2.76 | 0.00 | 93 | 1011.6 |
| 20260502054510 | 57 | 3 | 2.0 | 11.0 | 0.00 | 2.77 | 0.00 | 93 | 1011.6 |
| 20260502054236 | 57 | 46 | 2.0 | 11.0 | 0.00 | 2.78 | 0.00 | 94 | 1011.5 |
| 20260502053602 | 57 | 78 | 2.0 | 10.0 | 0.00 | 2.84 | 0.00 | 95 | 1011.5 |
| 20260502053548 | 57 | 19 | 2.0 | 8.0 | 0.00 | 2.81 | 0.00 | 94 | 1011.5 |
| 20260502053449 | 57 | 60 | 2.0 | 9.0 | 0.00 | 2.83 | 0.00 | 94 | 1011.5 |
| 20260502053336 | 56 | 56 | 3.0 | 11.0 | 0.00 | 2.84 | 0.00 | 94 | 1011.5 |
| 20260502053232 | 56 | 65 | 3.0 | 11.0 | 0.00 | 2.84 | 0.00 | 94 | 1011.5 |
| 20260502051506 | 57 | 78 | 2.0 | 10.0 | 0.00 | 2.84 | 0.00 | 95 | 1011.5 |
| 20260502050959 | 57 | 21 | 2.0 | 10.0 | 0.00 | 2.85 | 0.00 | 95 | 1011.6 |
| 20260502050458 | 57 | 349 | 2.0 | 9.0 | 0.00 | 2.85 | 0.00 | 95 | 1011.6 |
| 20260502045959 | 57 | 80 | 1.0 | 8.0 | 0.00 | 2.86 | 2.86 | 95 | 1011.6 |
| 20260502045459 | 57 | 44 | 1.0 | 8.0 | 0.00 | 2.86 | 2.86 | 96 | 1011.5 |
| 20260502044959 | 57 | 11 | 1.0 | 10.0 | 0.00 | 2.86 | 2.86 | 96 | 1011.4 |
| 20260502044457 | 57 | 12 | 2.0 | 10.0 | 0.00 | 2.86 | 2.86 | 96 | 1011.5 |
| 20260502043955 | 57 | 58 | 1.0 | 8.0 | 0.00 | 2.86 | 2.86 | 96 | 1011.4 |
| 20260502043454 | 57 | 89 | 1.0 | 9.0 | 0.00 | 2.86 | 2.86 | 96 | 1011.4 |
| 20260502042956 | 57 | 68 | 1.0 | 9.0 | 0.00 | 2.86 | 2.86 | 96 | 1011.4 |
| 20260502042453 | 57 | 41 | 1.0 | 8.0 | 0.00 | 2.86 | 2.86 | 96 | 1011.6 |
| 20260502041953 | 57 | 346 | 1.0 | 5.0 | 0.00 | 2.86 | 2.86 | 96 | 1011.5 |
| 20260502041719 | 56 | 355 | 1.0 | 8.0 | 0.00 | 2.86 | 2.86 | 96 | 1011.6 |
| 20260502040950 | 56 | 35 | 1.0 | 8.0 | 0.00 | 2.86 | 2.86 | 97 | 1011.4 |
| 20260502040448 | 56 | 312 | 1.0 | 6.0 | 0.00 | 2.87 | 2.86 | 97 | 1011.5 |
| 20260502035947 | 56 | 70 | 2.0 | 6.0 | 0.00 | 2.87 | 2.86 | 97 | 1011.4 |
| 20260502035719 | 56 | 109 | 2.0 | 14.0 | 0.00 | 2.87 | 2.86 | 97 | 1011.4 |
| 20260502034946 | 56 | 351 | 2.0 | 14.0 | 0.00 | 2.87 | 2.86 | 97 | 1011.2 |
| 20260502034444 | 57 | 60 | 2.0 | 9.0 | 0.00 | 2.87 | 2.86 | 97 | 1011.2 |
| 20260502033944 | 56 | 305 | 3.0 | 9.0 | 0.00 | 2.87 | 2.86 | 97 | 1011.2 |
| 20260502033444 | 56 | 96 | 3.0 | 10.0 | 0.00 | 2.87 | 2.86 | 97 | 1011.2 |
| 20260502032944 | 57 | 343 | 2.0 | 10.0 | 0.00 | 2.87 | 2.86 | 97 | 1011.1 |
| 20260502032717 | 57 | 58 | 2.0 | 8.0 | 0.00 | 2.87 | 2.86 | 97 | 1010.9 |
| 20260502031945 | 57 | 23 | 3.0 | 8.0 | 0.00 | 2.87 | 2.86 | 97 | 1010.7 |
| 20260502031445 | 57 | 321 | 2.0 | 9.0 | 0.00 | 2.87 | 2.86 | 97 | 1010.7 |
| 20260502030945 | 57 | 52 | 2.0 | 8.0 | 0.00 | 2.88 | 2.86 | 97 | 1010.3 |
| 20260502030938 | 57 | 338 | 2.0 | 9.0 | 0.00 | 2.88 | 2.86 | 97 | 1010.5 |
| 20260502025938 | 57 | 53 | 1.0 | 7.0 | 0.01 | 2.88 | 2.86 | 97 | 1010.2 |
| 20260502025439 | 58 | 26 | 1.0 | 7.0 | 0.01 | 2.88 | 2.86 | 97 | 1010.3 |
| 20260502025209 | 58 | 58 | 2.0 | 8.0 | 0.01 | 2.88 | 2.86 | 97 | 1009.9 |
| 20260502024436 | 58 | 6 | 2.0 | 8.0 | 0.02 | 2.88 | 2.86 | 97 | 1009.8 |
| 20260502023931 | 58 | 51 | 2.0 | 11.0 | 0.02 | 2.88 | 2.86 | 97 | 1009.7 |
| 20260502023430 | 58 | 222 | 2.0 | 11.0 | 0.02 | 2.88 | 2.86 | 98 | 1009.5 |
| 20260502023201 | 58 | 35 | 1.0 | 8.0 | 0.03 | 2.88 | 2.86 | 98 | 1009.3 |
| 20260502022430 | 58 | 356 | 1.0 | 4.0 | 0.03 | 2.88 | 2.86 | 98 | 1009.4 |
| 20260502021929 | 58 | 34 | 1.0 | 4.0 | 0.03 | 2.88 | 2.86 | 98 | 1009.3 |
| 20260502021429 | 58 | 127 | 1.0 | 4.0 | 0.03 | 2.88 | 2.86 | 98 | 1009.1 |
| 20260502021155 | 58 | 41 | 1.0 | 8.0 | 0.03 | 2.88 | 2.86 | 98 | 1009.2 |
| 20260502020424 | 58 | 352 | 2.0 | 8.0 | 0.03 | 2.88 | 2.86 | 98 | 1009.5 |
| 20260502015923 | 58 | 64 | 2.0 | 8.0 | 0.03 | 2.87 | 2.85 | 98 | 1009.4 |
| 20260502015424 | 58 | 358 | 1.0 | 8.0 | 0.04 | 2.87 | 2.85 | 98 | 1009.4 |
| 20260502014924 | 59 | 44 | 1.0 | 9.0 | 0.05 | 2.87 | 2.85 | 98 | 1009.4 |
| 20260502014424 | 59 | 354 | 1.0 | 9.0 | 0.04 | 2.86 | 2.84 | 98 | 1009.4 |
| 20260502014156 | 58 | 37 | 2.0 | 10.0 | 0.04 | 2.86 | 2.84 | 98 | 1009.5 |
| 20260502013421 | 58 | 13 | 2.0 | 10.0 | 0.05 | 2.86 | 2.84 | 98 | 1009.2 |
| 20260502012921 | 59 | 348 | 2.0 | 10.0 | 0.04 | 2.85 | 2.83 | 98 | 1009.0 |
| 20260502012420 | 59 | 34 | 2.0 | 10.0 | 0.04 | 2.85 | 2.83 | 97 | 1008.9 |
| 20260502011922 | 59 | 318 | 1.0 | 6.0 | 0.04 | 2.85 | 2.83 | 98 | 1009.1 |
| 20260502011419 | 59 | 303 | 1.0 | 6.0 | 0.05 | 2.85 | 2.83 | 98 | 1009.0 |
| 20260502010919 | 59 | 224 | 1.0 | 8.0 | 0.05 | 2.85 | 2.83 | 98 | 1008.5 |
| 20260502010415 | 59 | 358 | 1.0 | 8.0 | 0.06 | 2.85 | 2.83 | 98 | 1008.3 |
| 20260502005915 | 59 | 27 | 2.0 | 8.0 | 0.07 | 2.84 | 2.82 | 98 | 1008.3 |
| 20260502005412 | 59 | 316 | 2.0 | 8.0 | 0.11 | 2.83 | 2.81 | 97 | 1008.3 |
| 20260502004913 | 59 | 349 | 1.0 | 6.0 | 0.15 | 2.82 | 2.80 | 98 | 1008.3 |
| 20260502004411 | 59 | 19 | 2.0 | 10.0 | 0.21 | 2.82 | 2.80 | 98 | 1008.3 |
| 20260502003911 | 59 | 28 | 2.0 | 10.0 | 0.25 | 2.82 | 2.80 | 97 | 1008.2 |
| 20260502003408 | 59 | 323 | 1.0 | 8.0 | 0.24 | 2.81 | 2.80 | 98 | 1007.8 |
| 20260502002909 | 59 | 319 | 2.0 | 8.0 | 0.25 | 2.81 | 2.79 | 98 | 1007.8 |
| 20260502002640 | 60 | 290 | 1.0 | 6.0 | 0.25 | 2.81 | 2.79 | 97 | 1007.4 |
| 20260502001909 | 60 | 356 | 2.0 | 7.0 | 0.25 | 2.81 | 2.79 | 97 | 1007.2 |
| 20260502001407 | 60 | 27 | 2.0 | 11.0 | 0.25 | 2.80 | 2.78 | 97 | 1007.4 |
| 20260502000905 | 60 | 37 | 1.0 | 11.0 | 0.29 | 2.80 | 2.78 | 97 | 1007.6 |
| 20260502000405 | 60 | 10 | 1.0 | 6.0 | 0.31 | 2.79 | 2.77 | 97 | 1007.5 |
| 20260501235907 | 60 | 350 | 2.0 | 7.0 | 0.32 | 2.77 | 2.75 | 97 | 1007.5 |
| 20260501235406 | 60 | 309 | 2.0 | 9.0 | 0.30 | 2.72 | 2.72 | 97 | 1007.5 |
| 20260501234913 | 60 | 318 | 3.0 | 13.0 | 0.29 | 2.67 | 2.65 | 97 | 1007.5 |
| 20260501234405 | 60 | 124 | 3.0 | 13.0 | 0.33 | 2.61 | 2.60 | 97 | 1007.7 |
| 20260501233906 | 60 | 354 | 2.0 | 12.0 | 0.30 | 2.57 | 2.56 | 97 | 1007.3 |
| 20260501233407 | 60 | 11 | 2.0 | 12.0 | 0.30 | 2.57 | 2.55 | 97 | 1006.6 |
| 20260501233139 | 60 | 63 | 3.0 | 11.0 | 0.29 | 2.56 | 2.55 | 97 | 1006.4 |
| 20260501232405 | 60 | 64 | 3.0 | 11.0 | 0.29 | 2.56 | 2.54 | 97 | 1005.3 |
| 20260501232137 | 60 | 40 | 2.0 | 10.0 | 0.29 | 2.56 | 2.54 | 97 | 1005.7 |
| 20260501231406 | 60 | 45 | 2.0 | 10.0 | 0.28 | 2.55 | 2.53 | 97 | 1006.1 |
| 20260501230907 | 60 | 23 | 1.0 | 8.0 | 0.24 | 2.51 | 2.50 | 97 | 1006.4 |
| 20260501230402 | 61 | 6 | 2.0 | 8.0 | 0.20 | 2.47 | 2.46 | 97 | 1006.4 |
| 20260501225859 | 61 | 113 | 3.0 | 10.0 | 0.18 | 2.45 | 2.43 | 97 | 1006.4 |
| 20260501225400 | 61 | 53 | 3.0 | 10.0 | 0.15 | 2.42 | 2.41 | 97 | 1006.2 |
| 20260501224900 | 61 | 16 | 3.0 | 10.0 | 0.12 | 2.38 | 2.37 | 97 | 1005.8 |
| 20260501224631 | 61 | 55 | 2.0 | 9.0 | 0.02 | 2.28 | 2.27 | 97 | 1006.5 |
| 20260501223901 | 61 | 281 | 3.0 | 13.0 | 0.01 | 2.27 | 2.25 | 98 | 1006.5 |
| 20260501223626 | 61 | 63 | 3.0 | 13.0 | 0.02 | 2.27 | 2.25 | 97 | 1006.0 |
| 20260501222857 | 61 | 46 | 3.0 | 8.0 | 0.03 | 2.27 | 2.25 | 98 | 1006.1 |
| 20260501222626 | 61 | 45 | 3.0 | 12.0 | 0.03 | 2.27 | 2.25 | 98 | 1006.1 |
| 20260501221855 | 61 | 43 | 4.0 | 14.0 | 0.03 | 2.27 | 2.25 | 97 | 1005.9 |
| 20260501221356 | 61 | 60 | 3.0 | 14.0 | 0.03 | 2.27 | 2.25 | 97 | 1005.7 |
| 20260501220857 | 62 | 20 | 3.0 | 13.0 | 0.03 | 2.27 | 2.25 | 98 | 1005.7 |
| 20260501220351 | 62 | 24 | 3.0 | 13.0 | 0.03 | 2.27 | 2.25 | 98 | 1005.8 |
| 20260501215853 | 62 | 37 | 2.0 | 10.0 | 0.04 | 2.27 | 2.25 | 98 | 1006.2 |
| 20260501215353 | 62 | 340 | 2.0 | 10.0 | 0.04 | 2.27 | 2.25 | 98 | 1006.3 |
| 20260501214851 | 62 | 354 | 1.0 | 10.0 | 0.04 | 2.26 | 2.24 | 98 | 1006.3 |
| 20260501214352 | 62 | 309 | 1.0 | 8.0 | 0.10 | 2.26 | 2.24 | 98 | 1006.4 |
| 20260501213853 | 62 | 48 | 2.0 | 12.0 | 0.12 | 2.26 | 2.24 | 98 | 1006.5 |
| 20260501213348 | 62 | 27 | 2.0 | 12.0 | 0.13 | 2.25 | 2.23 | 98 | 1006.6 |